Year,Month,Day,Hour,Minute,Value (Times are PST for temperature in C)
2018,07,02,00,00,11.70
2018,07,02,00,01,11.70
2018,07,02,00,02,11.70
2018,07,02,00,03,11.70
2018,07,02,00,04,11.70
2018,07,02,00,05,11.60
2018,07,02,00,06,11.60
2018,07,02,00,07,11.60
2018,07,02,00,08,11.60
2018,07,02,00,09,11.60
2018,07,02,00,10,11.60
2018,07,02,00,11,11.50
2018,07,02,00,12,11.50
2018,07,02,00,13,11.50
2018,07,02,00,14,11.50
2018,07,02,00,15,11.50
2018,07,02,00,16,11.40
2018,07,02,00,17,11.40
2018,07,02,00,18,11.40
2018,07,02,00,19,11.40
2018,07,02,00,20,11.40
2018,07,02,00,21,11.40
2018,07,02,00,22,11.30
2018,07,02,00,23,11.30
2018,07,02,00,24,11.30
2018,07,02,00,25,11.30
2018,07,02,00,26,11.30
2018,07,02,00,27,11.30
2018,07,02,00,28,11.30
2018,07,02,00,29,11.30
2018,07,02,00,30,11.20
2018,07,02,00,31,11.20
2018,07,02,00,32,11.20
2018,07,02,00,33,11.20
2018,07,02,00,34,11.20
2018,07,02,00,35,11.20
2018,07,02,00,36,11.20
2018,07,02,00,37,11.20
2018,07,02,00,38,11.20
2018,07,02,00,39,11.20
2018,07,02,00,40,11.20
2018,07,02,00,41,11.10
2018,07,02,00,42,11.10
2018,07,02,00,43,11.10
2018,07,02,00,44,11.10
2018,07,02,00,45,11.10
2018,07,02,00,46,11.00
2018,07,02,00,47,11.00
2018,07,02,00,48,11.00
2018,07,02,00,49,10.90
2018,07,02,00,50,10.90
2018,07,02,00,51,10.90
2018,07,02,00,52,10.90
2018,07,02,00,53,10.90
2018,07,02,00,54,11.00
2018,07,02,00,55,11.10
2018,07,02,00,56,11.10
2018,07,02,00,57,11.10
2018,07,02,00,58,11.20
2018,07,02,00,59,11.20
2018,07,02,01,00,11.20
2018,07,02,01,01,11.20
2018,07,02,01,02,11.20
2018,07,02,01,03,11.20
2018,07,02,01,04,11.20
2018,07,02,01,05,11.20
2018,07,02,01,06,11.20
2018,07,02,01,07,11.20
2018,07,02,01,08,11.20
2018,07,02,01,09,11.20
2018,07,02,01,10,11.20
2018,07,02,01,11,11.20
2018,07,02,01,12,11.20
2018,07,02,01,13,11.20
2018,07,02,01,14,11.20
2018,07,02,01,15,11.20
2018,07,02,01,16,11.10
2018,07,02,01,17,11.10
2018,07,02,01,18,11.10
2018,07,02,01,19,11.10
2018,07,02,01,20,11.10
2018,07,02,01,21,11.00
2018,07,02,01,22,11.00
2018,07,02,01,23,11.00
2018,07,02,01,24,11.10
2018,07,02,01,25,11.10
2018,07,02,01,26,11.10
2018,07,02,01,27,11.10
2018,07,02,01,28,11.10
2018,07,02,01,29,11.10
2018,07,02,01,30,11.10
2018,07,02,01,31,11.20
2018,07,02,01,32,11.10
2018,07,02,01,33,11.10
2018,07,02,01,34,11.10
2018,07,02,01,35,11.10
2018,07,02,01,36,11.10
2018,07,02,01,37,11.00
2018,07,02,01,38,11.00
2018,07,02,01,39,11.00
2018,07,02,01,40,10.90
2018,07,02,01,41,10.90
2018,07,02,01,42,10.80
2018,07,02,01,43,10.80
2018,07,02,01,44,10.80
2018,07,02,01,45,10.70
2018,07,02,01,46,10.70
2018,07,02,01,47,10.70
2018,07,02,01,48,10.70
2018,07,02,01,49,10.60
2018,07,02,01,50,10.60
2018,07,02,01,51,10.60
2018,07,02,01,52,10.60
2018,07,02,01,53,10.60
2018,07,02,01,54,10.50
2018,07,02,01,55,10.50
2018,07,02,01,56,10.50
2018,07,02,01,57,10.50
2018,07,02,01,58,10.50
2018,07,02,01,59,10.40
2018,07,02,02,00,10.50
2018,07,02,02,01,10.40
2018,07,02,02,02,10.40
2018,07,02,02,03,10.50
2018,07,02,02,04,10.50
2018,07,02,02,05,10.50
2018,07,02,02,06,10.50
2018,07,02,02,07,10.50
2018,07,02,02,08,10.50
2018,07,02,02,09,10.50
2018,07,02,02,10,10.50
2018,07,02,02,11,10.50
2018,07,02,02,12,10.50
2018,07,02,02,13,10.50
2018,07,02,02,14,10.40
2018,07,02,02,15,10.40
2018,07,02,02,16,10.40
2018,07,02,02,17,10.40
2018,07,02,02,18,10.40
2018,07,02,02,19,10.40
2018,07,02,02,20,10.40
2018,07,02,02,21,10.40
2018,07,02,02,22,10.40
2018,07,02,02,23,10.40
2018,07,02,02,24,10.40
2018,07,02,02,25,10.30
2018,07,02,02,26,10.30
2018,07,02,02,27,10.30
2018,07,02,02,28,10.30
2018,07,02,02,29,10.30
2018,07,02,02,30,10.30
2018,07,02,02,31,10.30
2018,07,02,02,32,10.30
2018,07,02,02,33,10.20
2018,07,02,02,34,10.20
2018,07,02,02,35,10.20
2018,07,02,02,36,10.20
2018,07,02,02,37,10.20
2018,07,02,02,38,10.20
2018,07,02,02,39,10.20
2018,07,02,02,40,10.20
2018,07,02,02,41,10.20
2018,07,02,02,42,10.20
2018,07,02,02,43,10.20
2018,07,02,02,44,10.20
2018,07,02,02,45,10.20
2018,07,02,02,46,10.20
2018,07,02,02,47,10.20
2018,07,02,02,48,10.20
2018,07,02,02,49,10.20
2018,07,02,02,50,10.20
2018,07,02,02,51,10.20
2018,07,02,02,52,10.20
2018,07,02,02,53,10.20
2018,07,02,02,54,10.20
2018,07,02,02,55,10.20
2018,07,02,02,56,10.20
2018,07,02,02,57,10.20
2018,07,02,02,58,10.20
2018,07,02,02,59,10.20
2018,07,02,03,00,10.20
2018,07,02,03,01,10.20
2018,07,02,03,02,10.20
2018,07,02,03,03,10.20
2018,07,02,03,04,10.20
2018,07,02,03,05,10.20
2018,07,02,03,06,10.20
2018,07,02,03,07,10.10
2018,07,02,03,08,10.10
2018,07,02,03,09,10.10
2018,07,02,03,10,10.10
2018,07,02,03,11,10.00
2018,07,02,03,12,10.00
2018,07,02,03,13,10.00
2018,07,02,03,14,9.90
2018,07,02,03,15,9.90
2018,07,02,03,16,9.90
2018,07,02,03,17,9.80
2018,07,02,03,18,9.80
2018,07,02,03,19,9.80
2018,07,02,03,20,9.80
2018,07,02,03,21,9.70
2018,07,02,03,22,9.70
2018,07,02,03,23,9.70
2018,07,02,03,24,9.70
2018,07,02,03,25,9.60
2018,07,02,03,26,9.60
2018,07,02,03,27,9.60
2018,07,02,03,28,9.60
2018,07,02,03,29,9.50
2018,07,02,03,30,9.50
2018,07,02,03,31,9.50
2018,07,02,03,32,9.40
2018,07,02,03,33,9.40
2018,07,02,03,34,9.40
2018,07,02,03,35,9.40
2018,07,02,03,36,9.40
2018,07,02,03,37,9.40
2018,07,02,03,38,9.40
2018,07,02,03,39,9.40
2018,07,02,03,40,9.40
2018,07,02,03,41,9.40
2018,07,02,03,42,9.50
2018,07,02,03,43,9.50
2018,07,02,03,44,9.50
2018,07,02,03,45,9.50
2018,07,02,03,46,9.60
2018,07,02,03,47,9.60
2018,07,02,03,48,9.60
2018,07,02,03,49,9.60
2018,07,02,03,50,9.60
2018,07,02,03,51,9.60
2018,07,02,03,52,9.60
2018,07,02,03,53,9.60
2018,07,02,03,54,9.70
2018,07,02,03,55,9.70
2018,07,02,03,56,9.70
2018,07,02,03,57,9.80
2018,07,02,03,58,9.80
2018,07,02,03,59,9.80
2018,07,02,04,00,9.80
2018,07,02,04,01,9.80
2018,07,02,04,02,9.80
2018,07,02,04,03,9.80
2018,07,02,04,04,9.80
2018,07,02,04,05,9.90
2018,07,02,04,06,9.90
2018,07,02,04,07,9.90
2018,07,02,04,08,9.90
2018,07,02,04,09,9.90
2018,07,02,04,10,9.90
2018,07,02,04,11,9.90
2018,07,02,04,12,9.90
2018,07,02,04,13,9.90
2018,07,02,04,14,10.00
2018,07,02,04,15,10.00
2018,07,02,04,16,10.00
2018,07,02,04,17,10.10
2018,07,02,04,18,10.10
2018,07,02,04,19,10.10
2018,07,02,04,20,10.10
2018,07,02,04,21,10.10
2018,07,02,04,22,10.10
2018,07,02,04,23,10.10
2018,07,02,04,24,10.10
2018,07,02,04,25,10.10
2018,07,02,04,26,10.10
2018,07,02,04,27,10.10
2018,07,02,04,28,10.10
2018,07,02,04,29,10.10
2018,07,02,04,30,10.10
2018,07,02,04,31,10.10
2018,07,02,04,32,10.10
2018,07,02,04,33,10.00
2018,07,02,04,34,10.00
2018,07,02,04,35,10.00
2018,07,02,04,36,10.00
2018,07,02,04,37,10.00
2018,07,02,04,38,10.00
2018,07,02,04,39,10.00
2018,07,02,04,40,10.00
2018,07,02,04,41,10.00
2018,07,02,04,42,10.00
2018,07,02,04,43,10.00
2018,07,02,04,44,9.90
2018,07,02,04,45,9.90
2018,07,02,04,46,9.90
2018,07,02,04,47,9.90
2018,07,02,04,48,9.90
2018,07,02,04,49,9.90
2018,07,02,04,50,9.90
2018,07,02,04,51,9.80
2018,07,02,04,52,9.80
2018,07,02,04,53,9.80
2018,07,02,04,54,9.80
2018,07,02,04,55,9.80
2018,07,02,04,56,9.80
2018,07,02,04,57,9.80
2018,07,02,04,58,9.80
2018,07,02,04,59,9.80
2018,07,02,05,00,9.80
2018,07,02,05,01,9.80
2018,07,02,05,02,9.80
2018,07,02,05,03,9.80
2018,07,02,05,04,9.80
2018,07,02,05,05,9.80
2018,07,02,05,06,9.80
2018,07,02,05,07,9.80
2018,07,02,05,08,9.80
2018,07,02,05,09,9.80
2018,07,02,05,10,9.90
2018,07,02,05,11,9.80
2018,07,02,05,12,9.80
2018,07,02,05,13,9.80
2018,07,02,05,14,9.80
2018,07,02,05,15,9.80
2018,07,02,05,16,9.80
2018,07,02,05,17,9.80
2018,07,02,05,18,9.80
2018,07,02,05,19,9.80
2018,07,02,05,20,9.80
2018,07,02,05,21,9.80
2018,07,02,05,22,9.80
2018,07,02,05,23,9.80
2018,07,02,05,24,9.90
2018,07,02,05,25,9.90
2018,07,02,05,26,9.90
2018,07,02,05,27,9.90
2018,07,02,05,28,9.90
2018,07,02,05,29,9.90
2018,07,02,05,30,10.00
2018,07,02,05,31,10.00
2018,07,02,05,32,10.00
2018,07,02,05,33,10.10
2018,07,02,05,34,10.10
2018,07,02,05,35,10.10
2018,07,02,05,36,10.10
2018,07,02,05,37,10.10
2018,07,02,05,38,10.20
2018,07,02,05,39,10.20
2018,07,02,05,40,10.20
2018,07,02,05,41,10.30
2018,07,02,05,42,10.30
2018,07,02,05,43,10.30
2018,07,02,05,44,10.30
2018,07,02,05,45,10.40
2018,07,02,05,46,10.40
2018,07,02,05,47,10.40
2018,07,02,05,48,10.50
2018,07,02,05,49,10.50
2018,07,02,05,50,10.50
2018,07,02,05,51,10.50
2018,07,02,05,52,10.60
2018,07,02,05,53,10.60
2018,07,02,05,54,10.70
2018,07,02,05,55,10.70
2018,07,02,05,56,10.80
2018,07,02,05,57,10.80
2018,07,02,05,58,10.80
2018,07,02,05,59,10.80
2018,07,02,06,00,10.90
2018,07,02,06,01,10.90
2018,07,02,06,02,11.00
2018,07,02,06,03,11.00
2018,07,02,06,04,11.00
2018,07,02,06,05,11.10
2018,07,02,06,06,11.10
2018,07,02,06,07,11.20
2018,07,02,06,08,11.20
2018,07,02,06,09,11.20
2018,07,02,06,10,11.30
2018,07,02,06,11,11.30
2018,07,02,06,12,11.30
2018,07,02,06,13,11.30
2018,07,02,06,14,11.40
2018,07,02,06,15,11.40
2018,07,02,06,16,11.40
2018,07,02,06,17,11.40
2018,07,02,06,18,11.40
2018,07,02,06,19,11.40
2018,07,02,06,20,11.40
2018,07,02,06,21,11.30
2018,07,02,06,22,11.30
2018,07,02,06,23,11.30
2018,07,02,06,24,11.30
2018,07,02,06,25,11.30
2018,07,02,06,26,11.30
2018,07,02,06,27,11.30
2018,07,02,06,28,11.30
2018,07,02,06,29,11.30
2018,07,02,06,30,11.30
2018,07,02,06,31,11.30
2018,07,02,06,32,11.40
2018,07,02,06,33,11.40
2018,07,02,06,34,11.40
2018,07,02,06,35,11.40
2018,07,02,06,36,11.50
2018,07,02,06,37,11.50
2018,07,02,06,38,11.50
2018,07,02,06,39,11.50
2018,07,02,06,40,11.60
2018,07,02,06,41,11.60
2018,07,02,06,42,11.60
2018,07,02,06,43,11.60
2018,07,02,06,44,11.60
2018,07,02,06,45,11.60
2018,07,02,06,46,11.60
2018,07,02,06,47,11.60
2018,07,02,06,48,11.70
2018,07,02,06,49,11.80
2018,07,02,06,50,11.80
2018,07,02,06,51,11.80
2018,07,02,06,52,11.80
2018,07,02,06,53,11.90
2018,07,02,06,54,12.00
2018,07,02,06,55,12.00
2018,07,02,06,56,12.10
2018,07,02,06,57,12.10
2018,07,02,06,58,12.20
2018,07,02,06,59,12.20
2018,07,02,07,00,12.30
2018,07,02,07,01,12.30
2018,07,02,07,02,12.40
2018,07,02,07,03,12.50
2018,07,02,07,04,12.60
2018,07,02,07,05,12.60
2018,07,02,07,06,12.70
2018,07,02,07,07,12.80
2018,07,02,07,08,12.80
2018,07,02,07,09,12.90
2018,07,02,07,10,13.00
2018,07,02,07,11,13.10
2018,07,02,07,12,13.20
2018,07,02,07,13,13.20
2018,07,02,07,14,13.20
2018,07,02,07,15,13.30
2018,07,02,07,16,13.30
2018,07,02,07,17,13.40
2018,07,02,07,18,13.40
2018,07,02,07,19,13.50
2018,07,02,07,20,13.60
2018,07,02,07,21,13.60
2018,07,02,07,22,13.70
2018,07,02,07,23,13.70
2018,07,02,07,24,13.70
2018,07,02,07,25,13.70
2018,07,02,07,26,13.70
2018,07,02,07,27,13.80
2018,07,02,07,28,13.80
2018,07,02,07,29,13.80
2018,07,02,07,30,13.80
2018,07,02,07,31,13.80
2018,07,02,07,32,13.80
2018,07,02,07,33,13.80
2018,07,02,07,34,13.80
2018,07,02,07,35,13.80
2018,07,02,07,36,13.80
2018,07,02,07,37,13.80
2018,07,02,07,38,13.90
2018,07,02,07,39,13.90
2018,07,02,07,40,13.90
2018,07,02,07,41,13.90
2018,07,02,07,42,13.90
2018,07,02,07,43,13.90
2018,07,02,07,44,14.00
2018,07,02,07,45,14.00
2018,07,02,07,46,14.10
2018,07,02,07,47,14.10
2018,07,02,07,48,14.20
2018,07,02,07,49,14.20
2018,07,02,07,50,14.20
2018,07,02,07,51,14.20
2018,07,02,07,52,14.30
2018,07,02,07,53,14.30
2018,07,02,07,54,14.30
2018,07,02,07,55,14.30
2018,07,02,07,56,14.30
2018,07,02,07,57,14.30
2018,07,02,07,58,14.30
2018,07,02,07,59,14.40
2018,07,02,08,00,14.40
2018,07,02,08,01,14.40
2018,07,02,08,02,14.50
2018,07,02,08,03,14.50
2018,07,02,08,04,14.60
2018,07,02,08,05,14.60
2018,07,02,08,06,14.60
2018,07,02,08,07,14.60
2018,07,02,08,08,14.60
2018,07,02,08,09,14.70
2018,07,02,08,10,14.70
2018,07,02,08,11,14.70
2018,07,02,08,12,14.80
2018,07,02,08,13,14.80
2018,07,02,08,14,14.80
2018,07,02,08,15,14.80
2018,07,02,08,16,14.90
2018,07,02,08,17,14.90
2018,07,02,08,18,15.00
2018,07,02,08,19,15.00
2018,07,02,08,20,15.10
2018,07,02,08,21,15.20
2018,07,02,08,22,15.20
2018,07,02,08,23,15.20
2018,07,02,08,24,15.20
2018,07,02,08,25,15.20
2018,07,02,08,26,15.20
2018,07,02,08,27,15.30
2018,07,02,08,28,15.30
2018,07,02,08,29,15.30
2018,07,02,08,30,15.30
2018,07,02,08,31,15.30
2018,07,02,08,32,15.30
2018,07,02,08,33,15.30
2018,07,02,08,34,15.20
2018,07,02,08,35,15.20
2018,07,02,08,36,15.20
2018,07,02,08,37,15.20
2018,07,02,08,38,15.30
2018,07,02,08,39,15.20
2018,07,02,08,40,15.20
2018,07,02,08,41,15.20
2018,07,02,08,42,15.20
2018,07,02,08,43,15.30
2018,07,02,08,44,15.30
2018,07,02,08,45,15.30
2018,07,02,08,46,15.40
2018,07,02,08,47,15.40
2018,07,02,08,48,15.40
2018,07,02,08,49,15.40
2018,07,02,08,50,15.50
2018,07,02,08,51,15.50
2018,07,02,08,52,15.60
2018,07,02,08,53,15.60
2018,07,02,08,54,15.70
2018,07,02,08,55,15.70
2018,07,02,08,56,15.80
2018,07,02,08,57,15.90
2018,07,02,08,58,16.00
2018,07,02,08,59,16.10
2018,07,02,09,00,16.20
2018,07,02,09,01,16.20
2018,07,02,09,02,16.20
2018,07,02,09,03,16.20
2018,07,02,09,04,16.20
2018,07,02,09,05,16.20
2018,07,02,09,06,16.10
2018,07,02,09,07,16.10
2018,07,02,09,08,16.10
2018,07,02,09,09,16.10
2018,07,02,09,10,16.10
2018,07,02,09,11,16.10
2018,07,02,09,12,16.10
2018,07,02,09,13,16.10
2018,07,02,09,14,16.10
2018,07,02,09,15,16.20
2018,07,02,09,16,16.20
2018,07,02,09,17,16.20
2018,07,02,09,18,16.30
2018,07,02,09,19,16.30
2018,07,02,09,20,16.40
2018,07,02,09,21,16.40
2018,07,02,09,22,16.40
2018,07,02,09,23,16.40
2018,07,02,09,24,16.40
2018,07,02,09,25,16.50
2018,07,02,09,26,16.50
2018,07,02,09,27,16.50
2018,07,02,09,28,16.50
2018,07,02,09,29,16.40
2018,07,02,09,30,16.30
2018,07,02,09,31,16.30
2018,07,02,09,32,16.30
2018,07,02,09,33,16.30
2018,07,02,09,34,16.30
2018,07,02,09,35,16.30
2018,07,02,09,36,16.30
2018,07,02,09,37,16.30
2018,07,02,09,38,16.40
2018,07,02,09,39,16.40
2018,07,02,09,40,16.40
2018,07,02,09,41,16.40
2018,07,02,09,42,16.50
2018,07,02,09,43,16.50
2018,07,02,09,44,16.50
2018,07,02,09,45,16.50
2018,07,02,09,46,16.60
2018,07,02,09,47,16.70
2018,07,02,09,48,16.70
2018,07,02,09,49,16.80
2018,07,02,09,50,16.80
2018,07,02,09,51,16.80
2018,07,02,09,52,16.90
2018,07,02,09,53,16.80
2018,07,02,09,54,16.80
2018,07,02,09,55,16.90
2018,07,02,09,56,17.00
2018,07,02,09,57,17.00
2018,07,02,09,58,17.10
2018,07,02,09,59,17.10
2018,07,02,10,00,17.10
2018,07,02,10,01,17.10
2018,07,02,10,02,17.00
2018,07,02,10,03,17.00
2018,07,02,10,04,16.90
2018,07,02,10,05,16.90
2018,07,02,10,06,17.00
2018,07,02,10,07,17.00
2018,07,02,10,08,17.00
2018,07,02,10,09,17.00
2018,07,02,10,10,16.80
2018,07,02,10,11,16.80
2018,07,02,10,12,16.80
2018,07,02,10,13,16.80
2018,07,02,10,14,16.70
2018,07,02,10,15,16.70
2018,07,02,10,16,16.60
2018,07,02,10,17,16.60
2018,07,02,10,18,16.70
2018,07,02,10,19,16.80
2018,07,02,10,20,16.80
2018,07,02,10,21,16.80
2018,07,02,10,22,16.80
2018,07,02,10,23,16.80
2018,07,02,10,24,16.90
2018,07,02,10,25,17.00
2018,07,02,10,26,17.00
2018,07,02,10,27,17.00
2018,07,02,10,28,16.80
2018,07,02,10,29,16.80
2018,07,02,10,30,16.70
2018,07,02,10,31,16.70
2018,07,02,10,32,16.70
2018,07,02,10,33,16.60
2018,07,02,10,34,16.50
2018,07,02,10,35,16.50
2018,07,02,10,36,16.50
2018,07,02,10,37,16.50
2018,07,02,10,38,16.60
2018,07,02,10,39,16.60
2018,07,02,10,40,16.60
2018,07,02,10,41,16.60
2018,07,02,10,42,16.60
2018,07,02,10,43,16.60
2018,07,02,10,44,16.70
2018,07,02,10,45,16.70
2018,07,02,10,46,16.80
2018,07,02,10,47,16.80
2018,07,02,10,48,16.90
2018,07,02,10,49,16.90
2018,07,02,10,50,16.90
2018,07,02,10,51,16.90
2018,07,02,10,52,16.80
2018,07,02,10,53,16.80
2018,07,02,10,54,16.80
2018,07,02,10,55,16.80
2018,07,02,10,56,16.80
2018,07,02,10,57,16.70
2018,07,02,10,58,16.70
2018,07,02,10,59,16.70
2018,07,02,11,00,16.80
2018,07,02,11,01,16.80
2018,07,02,11,02,16.90
2018,07,02,11,03,16.90
2018,07,02,11,04,16.90
2018,07,02,11,05,16.90
2018,07,02,11,06,16.80
2018,07,02,11,07,16.90
2018,07,02,11,08,17.00
2018,07,02,11,09,17.10
2018,07,02,11,10,17.20
2018,07,02,11,11,17.30
2018,07,02,11,12,17.40
2018,07,02,11,13,17.50
2018,07,02,11,14,17.60
2018,07,02,11,15,17.70
2018,07,02,11,16,17.70
2018,07,02,11,17,17.70
2018,07,02,11,18,17.70
2018,07,02,11,19,17.80
2018,07,02,11,20,17.90
2018,07,02,11,21,18.00
2018,07,02,11,22,18.00
2018,07,02,11,23,17.80
2018,07,02,11,24,17.70
2018,07,02,11,25,17.70
2018,07,02,11,26,17.70
2018,07,02,11,27,17.80
2018,07,02,11,28,17.80
2018,07,02,11,29,17.90
2018,07,02,11,30,18.10
2018,07,02,11,31,18.20
2018,07,02,11,32,18.30
2018,07,02,11,33,18.30
2018,07,02,11,34,18.40
2018,07,02,11,35,18.40
2018,07,02,11,36,18.50
2018,07,02,11,37,18.50
2018,07,02,11,38,18.50
2018,07,02,11,39,18.40
2018,07,02,11,40,18.20
2018,07,02,11,41,18.10
2018,07,02,11,42,18.00
2018,07,02,11,43,17.90
2018,07,02,11,44,17.80
2018,07,02,11,45,17.80
2018,07,02,11,46,17.80
2018,07,02,11,47,17.80
2018,07,02,11,48,17.80
2018,07,02,11,49,17.80
2018,07,02,11,50,17.80
2018,07,02,11,51,17.80
2018,07,02,11,52,17.70
2018,07,02,11,53,17.70
2018,07,02,11,54,17.60
2018,07,02,11,55,17.40
2018,07,02,11,56,17.30
2018,07,02,11,57,17.20
2018,07,02,11,58,17.20
2018,07,02,11,59,17.20
2018,07,02,12,00,17.10
2018,07,02,12,01,17.20
2018,07,02,12,02,17.10
2018,07,02,12,03,17.10
2018,07,02,12,04,17.10
2018,07,02,12,05,17.00
2018,07,02,12,06,17.00
2018,07,02,12,07,17.00
2018,07,02,12,08,17.10
2018,07,02,12,09,17.10
2018,07,02,12,10,17.10
2018,07,02,12,11,17.20
2018,07,02,12,12,17.20
2018,07,02,12,13,17.20
2018,07,02,12,14,17.30
2018,07,02,12,15,17.40
2018,07,02,12,16,17.40
2018,07,02,12,17,17.40
2018,07,02,12,18,17.40
2018,07,02,12,19,17.40
2018,07,02,12,20,17.40
2018,07,02,12,21,17.50
2018,07,02,12,22,17.50
2018,07,02,12,23,17.40
2018,07,02,12,24,17.40
2018,07,02,12,25,17.40
2018,07,02,12,26,17.50
2018,07,02,12,27,17.50
2018,07,02,12,28,17.60
2018,07,02,12,29,17.60
2018,07,02,12,30,17.60
2018,07,02,12,31,17.50
2018,07,02,12,32,17.40
2018,07,02,12,33,17.30
2018,07,02,12,34,17.20
2018,07,02,12,35,17.20
2018,07,02,12,36,17.10
2018,07,02,12,37,17.20
2018,07,02,12,38,17.20
2018,07,02,12,39,17.20
2018,07,02,12,40,17.30
2018,07,02,12,41,17.30
2018,07,02,12,42,17.30
2018,07,02,12,43,17.30
2018,07,02,12,44,17.20
2018,07,02,12,45,17.20
2018,07,02,12,46,17.20
2018,07,02,12,47,17.20
2018,07,02,12,48,17.20
2018,07,02,12,49,17.20
2018,07,02,12,50,17.30
2018,07,02,12,51,17.20
2018,07,02,12,52,17.20
2018,07,02,12,53,17.20
2018,07,02,12,54,17.10
2018,07,02,12,55,17.10
2018,07,02,12,56,17.00
2018,07,02,12,57,17.10
2018,07,02,12,58,17.10
2018,07,02,12,59,17.10
2018,07,02,13,00,17.20
2018,07,02,13,01,17.20
2018,07,02,13,02,17.20
2018,07,02,13,03,17.30
2018,07,02,13,04,17.30
2018,07,02,13,05,17.30
2018,07,02,13,06,17.40
2018,07,02,13,07,17.40
2018,07,02,13,08,17.50
2018,07,02,13,09,17.60
2018,07,02,13,10,17.60
2018,07,02,13,11,17.70
2018,07,02,13,12,17.80
2018,07,02,13,13,17.90
2018,07,02,13,14,18.00
2018,07,02,13,15,18.00
2018,07,02,13,16,18.10
2018,07,02,13,17,18.20
2018,07,02,13,18,18.30
2018,07,02,13,19,18.30
2018,07,02,13,20,18.30
2018,07,02,13,21,18.40
2018,07,02,13,22,18.40
2018,07,02,13,23,18.40
2018,07,02,13,24,18.40
2018,07,02,13,25,18.40
2018,07,02,13,26,18.40
2018,07,02,13,27,18.30
2018,07,02,13,28,18.30
2018,07,02,13,29,18.30
2018,07,02,13,30,18.30
2018,07,02,13,31,18.30
2018,07,02,13,32,18.20
2018,07,02,13,33,18.20
2018,07,02,13,34,18.20
2018,07,02,13,35,18.30
2018,07,02,13,36,18.30
2018,07,02,13,37,18.20
2018,07,02,13,38,18.20
2018,07,02,13,39,18.20
2018,07,02,13,40,18.20
2018,07,02,13,41,18.20
2018,07,02,13,42,18.20
2018,07,02,13,43,18.20
2018,07,02,13,44,18.20
2018,07,02,13,45,18.20
2018,07,02,13,46,18.30
2018,07,02,13,47,18.40
2018,07,02,13,48,18.50
2018,07,02,13,49,18.40
2018,07,02,13,50,18.40
2018,07,02,13,51,18.30
2018,07,02,13,52,18.30
2018,07,02,13,53,18.30
2018,07,02,13,54,18.30
2018,07,02,13,55,18.30
2018,07,02,13,56,18.30
2018,07,02,13,57,18.30
2018,07,02,13,58,18.30
2018,07,02,13,59,18.30
2018,07,02,14,00,18.30
2018,07,02,14,01,18.40
2018,07,02,14,02,18.40
2018,07,02,14,03,18.50
2018,07,02,14,04,18.50
2018,07,02,14,05,18.50
2018,07,02,14,06,18.50
2018,07,02,14,07,18.50
2018,07,02,14,08,18.50
2018,07,02,14,09,18.60
2018,07,02,14,10,18.70
2018,07,02,14,11,18.70
2018,07,02,14,12,18.80
2018,07,02,14,13,18.70
2018,07,02,14,14,18.70
2018,07,02,14,15,18.70
2018,07,02,14,16,18.70
2018,07,02,14,17,18.70
2018,07,02,14,18,18.70
2018,07,02,14,19,18.80
2018,07,02,14,20,18.80
2018,07,02,14,21,18.80
2018,07,02,14,22,18.80
2018,07,02,14,23,18.70
2018,07,02,14,24,18.70
2018,07,02,14,25,18.60
2018,07,02,14,26,18.70
2018,07,02,14,27,18.80
2018,07,02,14,28,18.80
2018,07,02,14,29,18.90
2018,07,02,14,30,18.90
2018,07,02,14,31,19.00
2018,07,02,14,32,19.10
2018,07,02,14,33,19.10
2018,07,02,14,34,19.10
2018,07,02,14,35,19.10
2018,07,02,14,36,19.10
2018,07,02,14,37,19.10
2018,07,02,14,38,19.00
2018,07,02,14,39,19.10
2018,07,02,14,40,19.00
2018,07,02,14,41,19.00
2018,07,02,14,42,18.90
2018,07,02,14,43,18.90
2018,07,02,14,44,18.90
2018,07,02,14,45,18.90
2018,07,02,14,46,18.90
2018,07,02,14,47,19.00
2018,07,02,14,48,19.00
2018,07,02,14,49,19.00
2018,07,02,14,50,18.90
2018,07,02,14,51,18.90
2018,07,02,14,52,18.90
2018,07,02,14,53,18.90
2018,07,02,14,54,19.00
2018,07,02,14,55,19.00
2018,07,02,14,56,19.10
2018,07,02,14,57,19.10
2018,07,02,14,58,19.10
2018,07,02,14,59,19.10
2018,07,02,15,00,19.20
2018,07,02,15,01,19.20
2018,07,02,15,02,19.10
2018,07,02,15,03,19.10
2018,07,02,15,04,19.10
2018,07,02,15,05,19.10
2018,07,02,15,06,19.20
2018,07,02,15,07,19.20
2018,07,02,15,08,19.20
2018,07,02,15,09,19.20
2018,07,02,15,10,19.20
2018,07,02,15,11,19.20
2018,07,02,15,12,19.20
2018,07,02,15,13,19.20
2018,07,02,15,14,19.20
2018,07,02,15,15,19.20
2018,07,02,15,16,19.30
2018,07,02,15,17,19.30
2018,07,02,15,18,19.40
2018,07,02,15,19,19.40
2018,07,02,15,20,19.50
2018,07,02,15,21,19.50
2018,07,02,15,22,19.60
2018,07,02,15,23,19.50
2018,07,02,15,24,19.40
2018,07,02,15,25,19.40
2018,07,02,15,26,19.40
2018,07,02,15,27,19.40
2018,07,02,15,28,19.30
2018,07,02,15,29,19.30
2018,07,02,15,30,19.40
2018,07,02,15,31,19.40
2018,07,02,15,32,19.40
2018,07,02,15,33,19.40
2018,07,02,15,34,19.40
2018,07,02,15,35,19.40
2018,07,02,15,36,19.30
2018,07,02,15,37,19.20
2018,07,02,15,38,19.20
2018,07,02,15,39,19.20
2018,07,02,15,40,19.30
2018,07,02,15,41,19.40
2018,07,02,15,42,19.40
2018,07,02,15,43,19.50
2018,07,02,15,44,19.50
2018,07,02,15,45,19.40
2018,07,02,15,46,19.40
2018,07,02,15,47,19.40
2018,07,02,15,48,19.50
2018,07,02,15,49,19.50
2018,07,02,15,50,19.50
2018,07,02,15,51,19.50
2018,07,02,15,52,19.60
2018,07,02,15,53,19.60
2018,07,02,15,54,19.60
2018,07,02,15,55,19.60
2018,07,02,15,56,19.60
2018,07,02,15,57,19.60
2018,07,02,15,58,19.50
2018,07,02,15,59,19.40
2018,07,02,16,00,19.50
2018,07,02,16,01,19.60
2018,07,02,16,02,19.70
2018,07,02,16,03,19.70
2018,07,02,16,04,19.80
2018,07,02,16,05,19.80
2018,07,02,16,06,19.80
2018,07,02,16,07,19.90
2018,07,02,16,08,19.80
2018,07,02,16,09,19.70
2018,07,02,16,10,19.60
2018,07,02,16,11,19.50
2018,07,02,16,12,19.40
2018,07,02,16,13,19.40
2018,07,02,16,14,19.40
2018,07,02,16,15,19.30
2018,07,02,16,16,19.20
2018,07,02,16,17,19.10
2018,07,02,16,18,19.10
2018,07,02,16,19,19.00
2018,07,02,16,20,19.00
2018,07,02,16,21,18.90
2018,07,02,16,22,18.90
2018,07,02,16,23,18.80
2018,07,02,16,24,18.80
2018,07,02,16,25,18.80
2018,07,02,16,26,18.80
2018,07,02,16,27,18.80
2018,07,02,16,28,18.80
2018,07,02,16,29,18.90
2018,07,02,16,30,18.90
2018,07,02,16,31,18.90
2018,07,02,16,32,18.90
2018,07,02,16,33,18.90
2018,07,02,16,34,18.90
2018,07,02,16,35,18.90
2018,07,02,16,36,19.00
2018,07,02,16,37,19.10
2018,07,02,16,38,19.00
2018,07,02,16,39,19.00
2018,07,02,16,40,18.90
2018,07,02,16,41,18.90
2018,07,02,16,42,18.90
2018,07,02,16,43,19.00
2018,07,02,16,44,19.00
2018,07,02,16,45,19.10
2018,07,02,16,46,19.20
2018,07,02,16,47,19.20
2018,07,02,16,48,19.20
2018,07,02,16,49,19.20
2018,07,02,16,50,19.20
2018,07,02,16,51,19.20
2018,07,02,16,52,19.20
2018,07,02,16,53,19.20
2018,07,02,16,54,19.20
2018,07,02,16,55,19.20
2018,07,02,16,56,19.10
2018,07,02,16,57,19.00
2018,07,02,16,58,19.00
2018,07,02,16,59,19.00
2018,07,02,17,00,19.00
2018,07,02,17,01,19.00
2018,07,02,17,02,19.10
2018,07,02,17,03,19.10
2018,07,02,17,04,19.10
2018,07,02,17,05,19.10
2018,07,02,17,06,19.10
2018,07,02,17,07,19.10
2018,07,02,17,08,19.20
2018,07,02,17,09,19.20
2018,07,02,17,10,19.20
2018,07,02,17,11,19.10
2018,07,02,17,12,19.00
2018,07,02,17,13,18.90
2018,07,02,17,14,18.90
2018,07,02,17,15,18.90
2018,07,02,17,16,18.90
2018,07,02,17,17,18.90
2018,07,02,17,18,18.90
2018,07,02,17,19,18.90
2018,07,02,17,20,18.90
2018,07,02,17,21,18.90
2018,07,02,17,22,19.00
2018,07,02,17,23,19.10
2018,07,02,17,24,19.10